TimeCST,TemperatureF,Dew PointF,Humidity,Sea Level PressureIn,VisibilityMPH,Wind Direction,Wind SpeedMPH,Gust SpeedMPH,PrecipitationIn,Events,Conditions,WindDirDegrees,DateUTC
12:55 AM,61.3,61.3,100,30.20,10.0,WSW,4.6,-,0.00,,Light Drizzle,250,2013-01-26 06:55:00
1:55 AM,61.7,61.7,100,30.19,10.0,West,4.6,-,0.00,,Light Drizzle,260,2013-01-26 07:55:00
2:55 AM,61.9,61.9,100,30.19,10.0,West,4.6,-,0.00,,Light Drizzle,270,2013-01-26 08:55:00
3:19 AM,60.8,60.8,100,30.18,10.0,West,4.6,-,N/A,,Clear,260,2013-01-26 09:19:00
3:29 AM,60.8,60.8,100,30.19,10.0,West,4.6,-,N/A,,Light Drizzle,280,2013-01-26 09:29:00
3:36 AM,60.8,60.8,100,30.19,10.0,West,3.5,-,N/A,,Clear,280,2013-01-26 09:36:00
3:44 AM,60.8,60.8,100,30.19,10.0,West,4.6,-,N/A,,Light Drizzle,280,2013-01-26 09:44:00
3:55 AM,61.3,61.3,100,30.19,10.0,NW,4.6,-,0.00,,Light Drizzle,310,2013-01-26 09:55:00
4:03 AM,55.4,55.4,100,30.19,10.0,North,3.5,-,N/A,,Clear,350,2013-01-26 10:03:00
4:41 AM,57.2,57.2,100,30.20,10.0,WNW,4.6,-,N/A,,Light Drizzle,290,2013-01-26 10:41:00
4:55 AM,59.4,59.4,100,30.20,10.0,WNW,4.6,-,0.00,,Light Drizzle,290,2013-01-26 10:55:00
5:33 AM,53.6,53.6,100,30.21,10.0,Calm,Calm,-,N/A,,Clear,0,2013-01-26 11:33:00
5:41 AM,51.8,51.8,100,30.21,10.0,WNW,3.5,-,N/A,,Light Drizzle,300,2013-01-26 11:41:00
5:55 AM,52.0,52.0,100,30.21,10.0,Calm,Calm,-,0.00,,Light Drizzle,0,2013-01-26 11:55:00
6:55 AM,51.8,51.8,100,30.23,10.0,Calm,Calm,-,0.00,,Partly Cloudy,0,2013-01-26 12:55:00
6:56 AM,51.8,51.8,100,30.23,10.0,Calm,Calm,-,N/A,,Light Drizzle,0,2013-01-26 12:56:00
7:09 AM,51.8,51.8,100,30.24,10.0,Calm,Calm,-,N/A,,Partly Cloudy,0,2013-01-26 13:09:00
7:14 AM,51.8,51.8,100,30.24,10.0,Calm,Calm,-,N/A,,Light Drizzle,0,2013-01-26 13:14:00
7:19 AM,53.6,53.6,100,30.24,10.0,Calm,Calm,-,N/A,,Light Drizzle,0,2013-01-26 13:19:00
7:55 AM,59.7,59.5,99,30.24,10.0,WNW,4.6,-,0.00,,Light Drizzle,290,2013-01-26 13:55:00
7:56 AM,59.0,59.0,100,30.24,10.0,WNW,4.6,-,N/A,,Light Drizzle,290,2013-01-26 13:56:00
8:55 AM,64.8,64.8,100,30.25,10.0,WNW,9.2,-,0.00,,Light Drizzle,300,2013-01-26 14:55:00
9:08 AM,66.2,66.2,100,30.25,10.0,WNW,6.9,-,N/A,,Clear,300,2013-01-26 15:08:00
9:11 AM,66.2,66.2,100,30.25,10.0,NW,10.4,-,N/A,,Light Drizzle,310,2013-01-26 15:11:00
9:23 AM,68.0,68.0,100,30.26,10.0,WNW,6.9,-,N/A,,Light Drizzle,300,2013-01-26 15:23:00
9:37 AM,68.0,68.0,100,30.26,10.0,NW,6.9,-,N/A,,Light Drizzle,320,2013-01-26 15:37:00
9:40 AM,68.0,68.0,100,30.26,10.0,Variable,5.8,-,N/A,,Light Drizzle,0,2013-01-26 15:40:00
9:54 AM,69.8,69.8,100,30.26,10.0,NW,8.1,-,N/A,,Light Drizzle,320,2013-01-26 15:54:00
9:55 AM,69.1,68.9,99,30.26,10.0,NW,6.9,-,0.00,,Light Drizzle,320,2013-01-26 15:55:00
10:10 AM,69.8,69.8,100,30.26,10.0,NW,8.1,-,N/A,,Partly Cloudy,320,2013-01-26 16:10:00
10:11 AM,69.8,69.8,100,30.26,10.0,NW,5.8,-,N/A,Rain,Light Rain,320,2013-01-26 16:11:00
10:55 AM,72.1,68.7,89,30.25,10.0,NNW,8.1,-,0.00,,Light Drizzle,330,2013-01-26 16:55:00
11:36 AM,71.6,68.0,88,30.23,10.0,SW,9.2,-,N/A,,Partly Cloudy,230,2013-01-26 17:36:00
11:55 AM,71.8,68.7,90,30.22,10.0,WSW,9.2,-,0.00,,Clear,240,2013-01-26 17:55:00
12:21 PM,71.6,68.0,88,30.22,10.0,WSW,10.4,-,N/A,,Light Drizzle,250,2013-01-26 18:21:00
12:34 PM,69.8,68.0,94,30.21,10.0,SW,11.5,-,N/A,,Light Drizzle,230,2013-01-26 18:34:00
12:38 PM,69.8,68.0,94,30.21,10.0,WSW,11.5,-,N/A,,Mostly Cloudy,240,2013-01-26 18:38:00
12:39 PM,69.8,68.0,94,30.21,10.0,WSW,10.4,-,N/A,,Light Drizzle,240,2013-01-26 18:39:00
12:47 PM,71.6,69.8,94,30.21,10.0,SW,11.5,-,N/A,,Light Drizzle,230,2013-01-26 18:47:00
12:55 PM,70.0,68.5,95,30.21,10.0,WSW,12.7,-,0.00,,Light Drizzle,240,2013-01-26 18:55:00
12:59 PM,69.8,68.0,94,30.20,10.0,SW,9.2,-,N/A,,Scattered Clouds,230,2013-01-26 18:59:00
1:00 PM,69.8,68.0,94,30.20,10.0,SW,9.2,-,N/A,,Light Drizzle,230,2013-01-26 19:00:00
1:06 PM,69.8,68.0,94,30.20,10.0,WSW,8.1,-,N/A,,Light Drizzle,240,2013-01-26 19:06:00
1:10 PM,69.8,68.0,94,30.20,10.0,WSW,10.4,-,N/A,,Mostly Cloudy,250,2013-01-26 19:10:00
1:34 PM,69.8,68.0,94,30.20,10.0,WSW,11.5,-,N/A,,Light Drizzle,240,2013-01-26 19:34:00
1:37 PM,69.8,68.0,94,30.20,10.0,WSW,12.7,-,N/A,,Light Drizzle,240,2013-01-26 19:37:00
1:40 PM,68.0,68.0,100,30.20,10.0,WSW,10.4,-,N/A,,Light Drizzle,240,2013-01-26 19:40:00
1:41 PM,68.0,68.0,100,30.20,10.0,WSW,9.2,-,N/A,,Light Drizzle,240,2013-01-26 19:41:00
1:42 PM,68.0,68.0,100,30.20,10.0,WSW,10.4,-,N/A,,Light Drizzle,240,2013-01-26 19:42:00
1:45 PM,68.0,68.0,100,30.19,10.0,WSW,10.4,-,N/A,,Light Drizzle,250,2013-01-26 19:45:00
1:47 PM,68.0,68.0,100,30.19,10.0,WSW,10.4,-,N/A,,Light Drizzle,250,2013-01-26 19:47:00
1:48 PM,68.0,68.0,100,30.19,10.0,WSW,10.4,-,N/A,,Mostly Cloudy,250,2013-01-26 19:48:00
1:55 PM,68.0,67.8,99,30.19,10.0,WSW,10.4,-,0.00,,Mostly Cloudy,250,2013-01-26 19:55:00
1:56 PM,68.0,68.0,100,30.19,10.0,WSW,9.2,-,N/A,,Light Drizzle,250,2013-01-26 19:56:00
1:59 PM,68.0,68.0,100,30.19,10.0,WSW,11.5,-,N/A,,Mostly Cloudy,250,2013-01-26 19:59:00
2:01 PM,68.0,68.0,100,30.19,10.0,WSW,10.4,-,N/A,,Light Drizzle,250,2013-01-26 20:01:00
2:18 PM,68.0,68.0,100,30.19,10.0,WSW,11.5,-,N/A,,Light Drizzle,240,2013-01-26 20:18:00
2:36 PM,68.0,68.0,100,30.20,10.0,WSW,9.2,-,N/A,,Mostly Cloudy,240,2013-01-26 20:36:00
2:51 PM,68.0,68.0,100,30.20,10.0,West,9.2,-,N/A,,Light Drizzle,260,2013-01-26 20:51:00
2:55 PM,68.5,68.2,99,30.20,10.0,West,10.4,-,0.00,,Light Drizzle,260,2013-01-26 20:55:00
3:00 PM,69.8,68.0,94,30.20,10.0,West,11.5,-,N/A,,Light Drizzle,260,2013-01-26 21:00:00
3:38 PM,69.8,68.0,94,30.20,10.0,WSW,9.2,-,N/A,,Light Drizzle,250,2013-01-26 21:38:00
3:42 PM,68.0,68.0,100,30.20,10.0,WSW,10.4,-,N/A,,Overcast,250,2013-01-26 21:42:00
3:45 PM,68.0,68.0,100,30.20,10.0,WSW,8.1,-,N/A,,Mostly Cloudy,250,2013-01-26 21:45:00
3:48 PM,68.0,68.0,100,30.20,10.0,WSW,9.2,-,N/A,,Mostly Cloudy,250,2013-01-26 21:48:00
3:55 PM,68.0,67.3,98,30.19,10.0,WSW,8.1,-,0.00,,Mostly Cloudy,250,2013-01-26 21:55:00
3:56 PM,68.0,68.0,100,30.19,10.0,WSW,8.1,-,N/A,,Mostly Cloudy,250,2013-01-26 21:56:00
4:06 PM,68.0,68.0,100,30.19,10.0,WSW,8.1,-,N/A,,Light Drizzle,250,2013-01-26 22:06:00
4:07 PM,68.0,68.0,100,30.19,10.0,WSW,8.1,-,N/A,,Mostly Cloudy,250,2013-01-26 22:07:00
4:11 PM,68.0,68.0,100,30.19,10.0,WSW,8.1,-,N/A,,Light Drizzle,250,2013-01-26 22:11:00
4:16 PM,68.0,68.0,100,30.20,10.0,WSW,8.1,-,N/A,,Light Drizzle,250,2013-01-26 22:16:00
4:22 PM,68.0,68.0,100,30.20,10.0,WSW,8.1,-,N/A,,Light Drizzle,240,2013-01-26 22:22:00
4:50 PM,66.2,66.2,100,30.20,10.0,WSW,9.2,-,N/A,,Light Drizzle,250,2013-01-26 22:50:00
4:55 PM,66.6,66.6,100,30.20,10.0,WSW,8.1,-,0.00,,Light Drizzle,250,2013-01-26 22:55:00
4:59 PM,66.2,66.2,100,30.20,10.0,WSW,8.1,-,N/A,,Mostly Cloudy,240,2013-01-26 22:59:00
5:04 PM,66.2,66.2,100,30.21,10.0,WSW,6.9,-,N/A,,Light Drizzle,250,2013-01-26 23:04:00
5:07 PM,66.2,66.2,100,30.21,10.0,WSW,6.9,-,N/A,,Light Drizzle,250,2013-01-26 23:07:00
5:13 PM,66.2,66.2,100,30.21,10.0,West,5.8,-,N/A,,Overcast,270,2013-01-26 23:13:00
5:18 PM,66.2,66.2,100,30.21,10.0,West,6.9,-,N/A,,Light Drizzle,260,2013-01-26 23:18:00
5:50 PM,66.2,66.2,100,30.21,10.0,West,5.8,-,N/A,,Light Drizzle,270,2013-01-26 23:50:00
5:54 PM,66.2,66.2,100,30.21,10.0,West,5.8,-,N/A,,Overcast,260,2013-01-26 23:54:00
5:55 PM,66.0,66.0,100,30.21,10.0,West,5.8,-,0.00,,Overcast,260,2013-01-26 23:55:00
6:17 PM,66.2,66.2,100,30.22,10.0,West,4.6,-,N/A,,Light Drizzle,270,2013-01-27 00:17:00
6:50 PM,64.4,64.4,100,30.22,10.0,West,4.6,-,N/A,,Light Drizzle,280,2013-01-27 00:50:00
6:54 PM,64.4,64.4,100,30.22,10.0,West,4.6,-,N/A,,Scattered Clouds,280,2013-01-27 00:54:00
6:55 PM,64.8,64.8,100,30.22,10.0,West,4.6,-,0.00,,Scattered Clouds,280,2013-01-27 00:55:00
7:05 PM,64.4,64.4,100,30.22,10.0,West,3.5,-,N/A,,Light Drizzle,280,2013-01-27 01:05:00
7:41 PM,64.4,64.4,100,30.22,10.0,Calm,Calm,-,N/A,,Clear,0,2013-01-27 01:41:00
7:55 PM,62.4,62.4,100,30.22,10.0,Calm,Calm,-,0.00,,Clear,0,2013-01-27 01:55:00
8:55 PM,58.1,58.1,100,30.24,10.0,NNE,4.6,-,N/A,,Partly Cloudy,20,2013-01-27 02:55:00
9:12 PM,57.2,57.2,100,30.24,10.0,NNE,4.6,-,N/A,,Light Drizzle,30,2013-01-27 03:12:00
9:55 PM,57.7,57.7,100,30.25,10.0,NNE,4.6,-,0.00,,Light Drizzle,30,2013-01-27 03:55:00
10:55 PM,55.6,55.6,100,30.26,10.0,North,4.6,-,0.00,,Clear,10,2013-01-27 04:55:00
10:58 PM,55.4,55.4,100,30.26,10.0,North,4.6,-,N/A,,Light Drizzle,10,2013-01-27 04:58:00
11:49 PM,53.6,53.6,100,30.26,10.0,Calm,Calm,-,N/A,,Clear,0,2013-01-27 05:49:00
11:51 PM,53.6,53.6,100,30.26,10.0,Calm,Calm,-,N/A,,Light Drizzle,0,2013-01-27 05:51:00
11:55 PM,54.3,54.3,100,30.26,10.0,Calm,Calm,-,0.00,,Light Drizzle,0,2013-01-27 05:55:00